Vorticity
9 9 8 6 4 3 2 3 4 5 6 8 9 11 11 11 11 10 9 7 6 7 9 13 16 15 12 8 6 4 2 4 6 9 6 4 9 1 -2 4 3 7 8 7 10 7 5 3 5 6 5 8 7 4 7 9 3 -2 1 7 14 9 4 5 -1 5 12 10 13 5 1 11 11 10 13 12 9 8 8 12 10 4 6 5 4 10 11 9
7 8 9 10 9 8 6 4 3 3 4 4 6 7 9 10 12 12 12 11 9 7 6 7 11 16 17 13 9 7 5 4 3 4 3 4 8 3 3 6 4 5 4 5 9 8 5 4 5 5 6 7 4 5 8 6 3 3 2 9 16 5 -5 1 -1 0 4 1 14 14 -1 7 11 7 11 12 10 8 10 13 9 8 7 5 4 5 6 6
5 6 6 7 8 9 9 8 7 6 4 4 4 4 5 6 7 10 11 13 12 11 9 7 7 10 15 17 14 10 7 5 4 1 -1 5 10 8 5 4 6 6 3 4 7 8 5 7 7 3 6 7 4 7 7 5 8 8 5 5 7 3 -5 2 4 -0 -1 -8 7 21 2 1 9 8 14 15 13 9 10 16 12 12 10 6 5 5 5 5
5 6 6 6 6 6 7 8 8 8 7 6 5 4 4 3 3 4 6 8 11 12 12 11 9 7 8 13 16 15 11 7 6 3 0 3 7 9 8 5 6 4 5 7 6 8 6 7 7 3 6 6 4 8 6 7 10 4 7 11 7 3 -4 2 5 -2 0 -7 2 21 4 -2 5 9 17 14 14 14 10 13 11 11 11 8 9 8 8 7
4 4 5 5 6 6 5 5 6 6 7 7 7 7 6 5 4 4 3 4 6 8 10 12 13 12 8 7 11 16 16 13 10 6 3 3 4 7 9 8 6 4 6 9 8 7 6 8 7 3 7 5 6 10 5 7 4 -7 1 10 8 5 -3 1 4 -4 0 -3 1 13 3 2 7 10 17 10 12 17 8 6 9 10 10 7 8 10 13 11
3 3 3 3 4 5 5 6 5 5 6 6 6 6 7 7 7 6 6 5 4 5 6 9 11 13 13 9 7 10 13 18 18 11 6 4 3 4 8 7 4 4 6 10 10 8 7 10 7 1 5 7 8 8 4 8 2 -12 -4 0 -4 -2 -4 -4 -1 -3 1 1 -1 5 8 10 10 8 12 9 8 11 5 6 11 9 8 7 7 11 16 14
3 3 4 4 4 4 4 5 5 5 5 5 5 5 5 5 7 8 7 8 6 6 6 6 8 9 12 13 11 8 7 13 18 17 11 7 5 3 5 7 3 3 6 10 11 11 9 11 10 4 3 7 11 5 1 11 5 -8 -4 -3 -9 -10 -9 -8 -7 -5 -0 1 -4 2 14 16 13 9 9 11 7 7 9 10 12 9 8 10 10 11 15 15
4 4 5 5 6 6 6 5 4 4 3 3 3 3 4 4 5 6 7 8 8 7 7 6 6 7 8 10 13 12 8 8 13 18 18 11 7 5 5 5 5 4 4 7 11 11 9 11 12 6 2 4 8 3 2 11 4 -5 -2 -1 -0 -4 -6 -2 -4 -6 -1 -1 -4 2 15 17 13 5 3 10 10 10 13 12 13 11 9 11 10 8 9 13
6 6 6 6 6 7 7 7 6 6 5 5 4 4 4 5 5 5 5 7 8 8 7 7 7 6 6 6 8 12 13 9 7 13 20 18 10 7 8 5 5 6 4 4 7 9 13 14 10 7 3 1 3 0 2 8 -1 -6 1 1 3 0 -2 4 2 -3 -2 -1 -3 -0 13 15 5 -1 -1 8 16 13 9 12 13 11 10 10 10 8 6 9
8 7 7 7 6 6 6 6 7 6 7 7 7 7 6 6 6 5 5 5 7 7 8 8 8 6 6 6 5 10 14 11 10 10 15 21 17 9 8 6 4 5 5 4 3 6 13 16 10 7 5 1 3 2 1 7 0 -7 2 5 4 2 -1 -2 -1 1 -1 -1 -2 -3 9 12 -0 0 2 5 17 13 6 12 12 9 11 9 10 8 4 6
9 9 8 8 8 7 6 5 6 5 6 6 7 7 7 7 6 5 6 6 6 6 7 8 9 8 6 5 5 7 9 9 12 12 11 16 21 15 9 7 7 5 4 4 5 4 7 13 10 7 7 5 3 1 0 6 3 -6 4 16 10 2 4 5 5 7 2 -3 -2 -2 4 5 -3 -2 1 2 9 8 7 14 13 9 9 9 11 10 5 5
8 8 8 9 8 8 8 7 7 6 5 6 6 6 6 6 5 5 6 6 5 5 6 6 7 9 7 6 8 7 6 7 9 11 11 11 17 22 16 9 6 7 6 5 7 6 4 5 9 11 10 6 5 4 2 2 0 -4 6 14 6 2 11 16 11 6 -0 -3 2 2 -2 -0 2 -0 -1 0 2 6 9 11 13 10 8 9 11 12 7 4
9 9 8 8 8 8 8 8 8 7 7 6 6 6 6 5 4 5 6 5 5 5 5 6 7 8 8 7 9 8 5 7 7 7 10 11 14 20 22 17 8 5 7 7 6 6 4 -0 5 15 13 6 5 5 5 4 1 0 4 2 1 9 10 9 9 4 -2 -2 2 2 0 4 8 4 1 4 6 8 7 7 12 11 7 9 10 13 10 6
9 10 10 9 9 9 9 9 8 8 8 8 7 7 6 5 5 6 6 5 5 4 4 6 6 7 7 4 9 12 8 6 5 5 7 10 11 12 16 20 16 8 5 7 7 6 5 0 4 10 12 13 7 3 7 7 4 2 2 -1 3 9 4 4 10 5 -1 1 3 4 4 5 6 5 6 11 12 10 6 4 11 11 8 8 9 12 11 9
5 7 8 8 9 9 9 9 9 10 10 8 7 7 5 5 7 6 5 5 5 5 5 4 4 5 5 4 7 11 8 5 5 5 5 7 11 10 10 14 19 16 8 5 7 8 5 1 5 7 11 17 8 3 8 7 5 4 1 1 5 8 6 8 10 6 1 1 5 5 4 2 3 6 7 12 13 9 8 5 7 11 9 8 9 10 11 12
4 4 4 4 5 5 6 6 7 9 9 8 7 7 5 6 8 6 6 6 5 6 6 6 5 3 4 4 4 6 7 6 9 10 6 4 7 9 10 11 16 21 17 9 3 4 2 -0 5 7 9 12 8 8 10 6 3 4 4 2 4 9 7 5 6 8 7 5 5 2 2 2 2 5 6 12 13 8 7 7 7 9 8 9 10 9 10 13
5 5 4 3 3 3 3 3 3 5 6 5 6 6 6 8 9 7 6 6 5 7 6 7 7 6 6 4 2 5 5 4 7 9 4 2 5 6 8 10 12 16 19 15 8 4 0 0 4 6 8 9 12 12 7 9 10 7 8 6 7 8 5 5 3 5 8 7 5 1 1 0 -1 2 2 9 16 11 5 3 6 7 6 8 11 10 9 11
3 4 5 4 4 4 3 3 2 3 4 3 4 5 5 8 9 8 7 7 6 6 5 5 7 8 7 4 4 5 5 5 5 6 5 4 4 5 6 8 8 9 11 13 16 13 8 6 4 4 7 7 11 8 3 16 20 10 8 9 11 5 4 10 0 1 6 -1 0 2 -1 -3 -3 -2 -2 6 14 12 6 3 5 6 7 7 10 11 9 9
2 2 2 3 4 4 4 4 4 3 2 3 3 4 4 6 7 7 7 7 7 6 6 6 6 8 7 6 7 4 4 7 5 5 9 7 3 5 8 8 8 9 10 12 16 16 15 14 10 6 7 7 10 5 5 19 17 8 7 9 13 4 5 10 -3 -1 3 -5 1 1 -6 -4 -4 -4 -3 3 10 14 17 16 10 6 8 7 8 12 9 8
7 6 5 4 3 3 3 3 4 5 3 2 2 2 3 4 6 6 5 7 8 7 6 6 8 9 8 7 7 5 5 7 6 5 8 8 4 5 7 6 8 9 8 10 13 14 14 17 17 16 11 7 9 6 9 19 13 7 6 8 13 7 7 8 -3 -0 2 0 6 1 -0 3 -3 -4 -4 -1 9 17 19 19 13 6 7 9 8 11 10 9
9 9 8 8 7 6 5 3 3 4 4 4 3 3 2 2 4 4 4 5 8 9 6 7 8 8 8 6 8 11 8 6 6 5 6 8 6 7 6 3 6 6 6 9 10 10 11 18 25 23 16 8 7 7 9 16 14 6 4 9 11 8 13 11 -3 -1 2 1 4 1 4 4 -3 -2 -3 -0 10 12 11 16 16 10 7 8 9 10 10 11
7 8 8 8 8 9 8 6 6 5 4 3 3 5 4 4 2 2 5 4 7 9 5 6 7 5 7 6 8 12 8 5 6 7 8 6 5 8 5 2 5 6 7 7 8 6 1 13 29 25 18 12 6 6 7 13 15 7 3 7 9 10 15 11 -2 -1 -2 -5 3 4 3 3 -4 -8 -6 2 6 2 6 13 10 6 5 5 9 11 12 12
5 5 5 6 6 8 9 7 8 9 7 5 4 5 5 6 4 2 4 3 6 8 3 7 7 3 7 8 8 10 7 8 9 7 8 7 6 7 4 4 7 6 7 5 5 6 -3 2 21 22 20 16 8 6 6 10 12 8 5 5 12 14 10 7 4 0 -5 -5 5 3 1 6 1 -4 -0 1 -0 2 11 17 12 10 10 9 10 10 10 15
5 5 4 4 4 7 9 7 6 9 8 6 8 8 6 5 4 3 4 3 6 6 5 11 7 0 5 9 8 5 1 5 10 7 6 9 8 5 6 7 7 4 7 6 5 8 1 0 10 14 16 18 14 10 6 7 9 9 7 6 14 13 6 13 11 -4 -6 -1 4 3 -0 2 3 5 2 -7 -0 7 9 14 13 10 12 10 9 7 7 13
4 5 3 4 4 6 10 8 5 7 6 6 8 9 9 6 5 4 3 6 4 -0 4 9 5 0 3 7 9 8 3 0 8 11 8 9 9 7 7 6 8 10 8 7 6 6 4 4 7 7 10 14 15 15 9 7 8 6 4 9 19 14 6 18 13 -7 -4 -1 -1 4 -1 -2 4 6 -1 -4 2 1 -0 9 10 8 12 9 5 6 8 11
4 5 4 4 3 4 10 10 6 6 6 7 7 8 9 7 8 6 4 9 4 -2 4 6 4 6 4 2 5 11 8 -3 -1 7 4 5 7 7 7 4 7 11 9 7 6 9 8 5 6 5 7 11 11 16 16 9 6 5 8 13 19 15 6 16 14 -5 -4 2 0 3 -1 1 8 1 -1 4 -1 -6 3 12 10 9 13 12 10 9 8 8
5 6 4 4 3 3 8 10 8 6 6 8 8 9 9 8 8 7 7 11 4 -0 8 6 3 7 5 2 2 6 8 1 -2 2 0 3 7 6 5 4 6 8 7 7 7 15 16 8 7 5 5 8 8 18 25 13 7 11 15 14 16 18 9 11 15 -1 -4 4 1 1 1 1 4 3 5 5 0 6 16 12 5 8 14 17 14 10 11 9
7 7 6 6 5 3 4 7 8 6 6 8 8 9 10 10 10 8 8 12 7 4 9 8 4 5 6 7 3 1 5 3 -1 -0 -2 -1 2 4 5 3 5 7 7 6 5 9 12 8 9 7 6 7 5 18 25 12 11 17 14 9 13 21 13 7 12 3 -2 3 -1 -1 2 -4 -3 7 8 4 9 17 18 12 6 6 11 12 4 4 12 11
10 10 9 7 7 6 3 4 7 7 6 6 8 9 8 8 9 7 8 10 7 7 10 11 8 4 6 9 8 3 4 3 1 1 2 0 -0 5 10 8 6 7 6 8 7 3 4 8 9 7 9 9 4 13 18 11 15 20 11 8 13 17 15 11 10 4 -4 -4 -1 2 2 -7 -10 1 5 7 20 21 9 3 -1 0 7 7 3 4 9 11
11 12 13 9 8 9 6 4 5 6 10 8 7 8 6 4 4 5 9 8 5 7 10 13 12 7 3 7 11 9 5 7 8 6 4 5 5 6 9 9 7 5 2 6 12 8 2 3 5 7 10 10 6 8 11 10 19 20 9 8 10 11 14 11 9 8 -6 -12 -2 1 -1 -6 -11 3 13 6 5 7 3 -0 -2 2 5 3 6 11 12 13
11 11 15 12 9 9 9 9 5 2 8 11 8 9 7 5 3 3 7 6 6 8 8 9 12 11 6 4 8 9 6 6 10 13 10 8 8 8 8 7 4 3 1 1 9 13 8 2 3 6 8 9 7 8 8 8 17 20 12 7 5 7 12 9 8 7 -6 -11 -0 3 2 -5 -14 3 20 6 -4 -0 1 4 5 4 1 -0 6 12 16 17
9 9 12 12 11 10 8 10 10 3 4 9 9 8 7 8 8 4 4 4 7 8 7 7 8 10 11 8 8 11 10 6 3 8 13 12 12 11 9 8 4 2 -0 -2 2 9 10 10 9 6 6 7 6 8 8 7 12 15 14 9 4 5 5 2 5 -0 -11 -5 7 11 7 -10 -21 -0 16 8 5 4 -1 4 7 0 -2 3 9 10 13 15
7 8 9 9 10 11 8 9 11 8 5 8 10 8 5 8 9 6 5 5 7 8 7 7 6 7 10 9 8 10 12 12 8 3 4 7 9 9 7 5 4 4 2 -2 0 4 6 9 13 11 9 8 7 8 6 6 10 12 16 14 7 5 0 0 11 2 -8 1 9 12 6 -15 -19 4 18 11 6 5 5 8 4 -4 -1 6 9 9 11 12
8 8 8 7 8 10 9 8 8 9 7 7 10 9 8 9 7 5 5 4 6 8 6 7 7 6 6 6 6 7 8 11 13 9 5 4 5 7 6 2 1 4 4 2 1 2 2 3 8 9 10 11 10 10 8 7 10 13 20 18 10 11 7 6 12 3 -1 6 7 7 1 -14 -13 2 11 10 4 6 12 11 -0 -5 2 5 4 6 9 11
9 10 9 8 9 8 8 6 7 9 9 8 8 5 7 9 7 6 6 5 6 6 5 6 8 8 7 5 4 5 5 4 7 9 8 6 5 6 6 2 3 4 5 7 6 5 4 4 6 6 7 10 9 9 11 10 8 12 17 12 11 20 14 7 6 2 7 7 0 5 3 -9 -10 -3 7 7 0 4 12 12 5 -0 3 3 3 7 6 10
7 10 12 11 10 9 9 9 8 8 9 11 7 3 7 10 8 8 8 7 7 7 7 6 5 7 9 8 6 4 3 4 6 6 5 6 6 5 3 1 1 3 3 4 4 5 7 6 10 9 6 8 7 5 9 9 8 12 11 6 15 25 18 12 10 9 9 -2 -6 10 12 -1 -7 -3 10 10 -1 -1 4 9 11 5 6 8 5 5 6 12
4 7 11 12 12 11 11 11 10 9 9 10 7 6 10 11 8 9 9 7 7 7 9 8 6 6 6 7 8 7 6 4 6 6 4 4 5 5 5 2 -0 0 2 2 1 3 4 2 4 8 7 9 10 7 7 6 5 8 7 9 19 21 16 16 12 9 6 -7 -4 15 16 6 -1 -1 10 13 5 1 -3 -2 5 4 3 9 9 6 8 14
5 7 10 12 12 10 12 13 12 10 9 9 9 10 11 11 11 12 9 7 8 8 8 8 7 7 6 5 5 8 8 4 4 7 6 5 5 4 4 6 5 4 2 3 4 4 4 3 1 3 6 6 7 7 7 5 4 4 5 9 13 12 15 17 10 12 13 -2 -3 13 16 10 5 1 7 12 8 6 0 -5 -1 3 1 11 22 16 8 10
8 9 15 15 9 8 13 17 16 14 14 12 11 12 12 12 12 11 9 7 8 9 8 8 7 6 6 6 6 7 7 7 7 7 5 6 7 5 4 6 8 8 7 6 6 3 5 7 5 5 6 5 4 3 5 6 6 5 3 4 5 5 12 15 8 13 19 6 -1 8 13 16 15 6 5 11 9 6 5 -0 -1 4 6 15 26 18 7 7
13 13 20 17 9 9 13 18 18 16 16 15 14 14 14 13 12 11 11 9 8 7 6 8 8 6 5 7 9 8 6 6 8 7 5 4 5 6 8 7 4 1 2 5 5 4 5 5 6 9 7 2 0 0 4 8 8 6 4 3 4 4 7 10 7 11 15 10 9 9 8 16 24 14 5 10 14 9 4 0 1 6 6 11 18 10 2 4
21 21 24 19 13 13 15 21 22 17 17 20 18 16 14 12 13 13 12 10 9 8 6 7 7 7 8 7 8 10 8 5 5 7 7 5 6 7 6 5 4 1 -1 2 2 4 10 9 3 4 4 4 6 5 5 7 8 7 6 5 8 7 6 4 2 7 10 6 9 7 1 9 24 24 16 12 14 16 10 3 9 14 5 1 9 5 -4 -1
29 28 29 26 20 19 20 24 24 21 22 22 19 18 17 16 17 17 15 12 10 9 8 8 7 7 8 8 7 6 6 6 5 4 5 7 8 7 4 2 5 8 7 5 4 4 13 20 11 4 3 6 10 10 6 6 6 6 6 7 9 9 8 4 0 6 9 4 5 2 -5 5 18 23 27 24 18 21 17 4 6 15 9 -0 4 3 -6 -4
35 32 37 39 30 22 24 30 32 29 26 23 22 22 22 22 21 19 17 15 12 12 11 10 9 8 6 5 7 6 4 6 8 5 4 7 8 5 5 4 4 9 11 11 11 1 -4 7 12 9 6 3 5 9 9 8 6 4 3 4 6 7 7 5 2 6 7 4 9 5 -4 4 13 12 20 29 25 23 22 8 -1 7 10 3 5 6 -2 -1
34 31 37 46 41 30 29 37 41 38 32 30 32 29 25 23 21 18 18 16 15 14 13 10 8 8 7 5 5 7 8 6 6 6 5 5 7 6 6 8 7 7 7 8 10 0 -9 -3 3 5 8 5 1 1 1 2 3 2 -0 0 4 7 6 3 2 5 6 3 6 5 -1 3 10 8 9 20 25 25 26 17 2 3 6 -1 3 9 4 2
27 26 27 37 42 38 35 38 41 41 37 35 35 33 29 26 21 19 17 15 16 15 13 13 11 8 8 8 5 5 8 8 4 5 7 5 6 8 7 8 8 6 4 4 3 1 3 6 1 -1 3 3 0 -1 1 3 2 1 1 1 6 7 5 4 4 5 7 5 2 1 1 3 7 8 6 13 23 24 23 19 7 3 4 -2 -1 7 6 4
21 21 21 26 33 37 37 39 43 46 43 38 35 33 30 25 22 23 20 15 19 20 14 12 13 13 12 8 6 5 6 9 9 6 6 5 4 6 8 8 9 8 8 9 5 2 5 6 3 2 2 1 3 8 14 14 5 2 5 5 6 7 7 6 3 1 4 6 4 3 2 1 5 8 7 11 19 19 21 22 12 3 4 4 5 6 3 1
17 18 18 21 26 28 28 31 36 42 43 38 33 30 29 25 20 23 26 23 22 24 22 19 14 16 19 14 8 8 6 8 11 9 6 6 6 7 8 9 10 10 10 10 8 4 3 3 7 11 7 4 2 1 8 15 11 7 8 8 7 8 8 5 1 2 5 3 4 9 7 3 5 7 7 11 14 14 20 28 21 6 0 5 13 12 4 2
16 15 15 18 21 21 20 21 25 31 38 40 35 28 29 29 20 17 23 28 30 27 25 29 28 21 20 19 12 9 9 10 13 13 8 5 6 8 10 11 11 11 11 10 8 6 3 2 8 11 8 7 6 -3 -6 3 10 11 10 9 10 9 6 5 4 7 6 1 1 6 7 6 8 9 8 10 11 15 26 33 25 11 0 1 8 10 6 3
17 15 13 14 17 18 17 18 19 20 26 37 39 32 30 32 28 23 18 17 29 38 32 30 41 40 27 21 19 14 10 11 15 16 11 6 4 6 12 14 13 11 11 11 11 8 6 6 7 6 4 6 12 8 -2 -2 4 8 9 9 10 9 6 6 9 10 7 5 4 5 5 4 6 8 9 9 7 11 24 30 21 8 2 -0 -2 -1 7 5
18 15 12 11 13 14 13 16 20 16 16 25 32 33 34 35 33 36 36 18 5 17 24 18 30 49 41 26 26 23 13 11 16 17 14 11 7 7 11 13 12 14 12 10 12 10 7 9 7 5 7 8 12 16 12 4 3 6 10 10 9 8 6 5 8 9 8 9 9 9 10 7 3 6 10 10 5 5 17 27 22 10 4 3 -2 -6 4 8
19 16 12 10 12 13 11 14 19 17 14 16 18 23 30 32 27 27 41 44 21 5 8 -1 -1 27 41 33 31 32 20 13 19 22 20 16 7 3 9 12 13 15 10 6 11 12 10 11 10 8 9 7 10 18 19 17 19 14 4 1 2 2 4 6 7 7 7 9 9 9 9 8 8 11 12 11 7 5 11 20 23 20 11 5 1 -5 -3 1
19 16 13 11 12 14 12 13 16 16 15 14 14 18 19 23 28 17 10 29 41 34 29 17 1 8 25 28 31 38 31 20 19 22 23 22 10 -1 4 13 15 13 9 4 7 12 12 11 10 10 9 7 9 13 11 18 24 9 -7 -3 4 3 3 6 5 3 4 4 3 5 6 7 9 11 14 16 10 4 6 11 19 27 19 6 0 -2 -1 4
Height
5891 5891 5890 5889 5888 5888 5887 5886 5886 5885 5885 5884 5884 5883 5883 5882 5882 5882 5882 5882 5881 5881 5881 5880 5880 5880 5881 5881 5882 5882 5883 5883 5883 5884 5883 5883 5884 5885 5886 5886 5887 5888 5889 5890 5892 5892 5892 5893 5893 5894 5895 5896 5896 5896 5896 5897 5896 5896 5897 5898 5899 5899 5898 5897 5896 5895 5896 5899 5900 5901 5901 5901 5900 5899 5898 5898 5897 5896 5896 5897 5898 5898 5899 5899 5900 5901 5901 5901
5890 5890 5889 5888 5888 5887 5886 5886 5885 5885 5884 5883 5883 5883 5882 5882 5881 5881 5881 5881 5880 5880 5880 5880 5879 5879 5879 5879 5880 5880 5881 5882 5882 5882 5882 5883 5884 5884 5885 5885 5886 5887 5888 5890 5891 5891 5891 5892 5892 5893 5894 5895 5895 5896 5896 5896 5896 5896 5897 5898 5899 5899 5898 5897 5896 5895 5895 5897 5899 5901 5901 5901 5900 5899 5898 5897 5896 5896 5896 5897 5897 5898 5899 5899 5899 5900 5901 5901
5889 5889 5888 5887 5886 5886 5885 5885 5884 5883 5883 5883 5882 5882 5881 5881 5881 5880 5880 5880 5880 5879 5879 5879 5879 5878 5878 5877 5878 5878 5879 5880 5881 5881 5881 5882 5883 5882 5883 5884 5885 5886 5887 5888 5888 5889 5889 5890 5891 5892 5893 5894 5894 5895 5895 5895 5896 5896 5897 5898 5899 5898 5898 5897 5896 5894 5894 5895 5897 5900 5901 5901 5900 5898 5897 5896 5896 5896 5897 5898 5898 5898 5898 5899 5899 5900 5900 5901
5888 5887 5887 5886 5885 5885 5884 5883 5883 5882 5882 5881 5881 5881 5880 5880 5880 5879 5879 5879 5879 5879 5878 5878 5878 5878 5877 5876 5876 5876 5876 5878 5879 5880 5880 5881 5881 5881 5882 5883 5884 5884 5885 5885 5886 5887 5887 5889 5891 5891 5893 5893 5894 5894 5895 5895 5896 5897 5897 5898 5899 5898 5897 5896 5895 5893 5893 5894 5896 5898 5900 5901 5900 5899 5897 5896 5896 5897 5897 5898 5898 5898 5898 5899 5899 5899 5900 5900
5887 5886 5885 5885 5884 5883 5883 5882 5882 5881 5881 5880 5880 5879 5879 5879 5879 5879 5878 5878 5878 5878 5877 5877 5877 5877 5876 5875 5875 5874 5874 5876 5877 5878 5879 5880 5880 5880 5881 5881 5882 5882 5882 5883 5884 5885 5886 5889 5891 5891 5892 5893 5893 5894 5895 5895 5896 5897 5898 5898 5898 5897 5896 5896 5895 5893 5892 5893 5895 5897 5899 5901 5901 5899 5898 5896 5896 5897 5897 5898 5898 5898 5898 5898 5899 5899 5899 5899
5885 5885 5884 5884 5883 5882 5882 5881 5880 5880 5879 5879 5878 5878 5878 5877 5877 5877 5877 5877 5877 5877 5877 5876 5876 5876 5875 5875 5874 5873 5873 5874 5875 5876 5877 5878 5879 5879 5879 5880 5880 5880 5881 5882 5883 5884 5885 5888 5890 5891 5892 5893 5894 5894 5894 5894 5895 5896 5896 5897 5897 5896 5895 5894 5894 5894 5893 5893 5894 5896 5899 5901 5901 5900 5899 5897 5896 5897 5898 5898 5898 5898 5898 5898 5898 5899 5899 5899
5884 5883 5883 5882 5882 5881 5880 5880 5879 5879 5878 5877 5877 5877 5876 5876 5876 5876 5876 5876 5876 5876 5876 5875 5875 5875 5874 5874 5873 5873 5872 5872 5873 5874 5875 5876 5877 5878 5878 5879 5879 5879 5880 5881 5882 5883 5885 5886 5889 5890 5891 5893 5893 5893 5892 5893 5894 5894 5894 5895 5895 5895 5894 5893 5893 5893 5893 5893 5893 5895 5898 5900 5901 5901 5900 5899 5898 5898 5899 5899 5899 5898 5898 5898 5898 5898 5898 5899
5882 5882 5881 5881 5880 5880 5879 5878 5878 5877 5877 5876 5876 5875 5875 5875 5875 5874 5874 5874 5874 5874 5874 5874 5874 5874 5873 5873 5873 5872 5871 5871 5871 5872 5873 5874 5875 5876 5877 5877 5877 5878 5879 5880 5881 5882 5883 5885 5887 5888 5890 5892 5892 5891 5891 5892 5893 5893 5893 5893 5894 5894 5894 5893 5892 5892 5893 5893 5892 5894 5897 5900 5901 5901 5901 5901 5900 5900 5900 5900 5899 5898 5898 5897 5897 5897 5898 5898
5880 5880 5879 5879 5878 5878 5877 5877 5876 5876 5875 5875 5874 5874 5873 5873 5873 5873 5873 5873 5873 5873 5873 5873 5873 5872 5872 5872 5871 5871 5871 5870 5869 5870 5871 5872 5873 5874 5875 5876 5876 5877 5878 5879 5879 5880 5882 5884 5886 5887 5889 5890 5889 5889 5890 5891 5892 5891 5891 5892 5893 5894 5894 5893 5892 5892 5892 5892 5892 5893 5896 5898 5900 5901 5902 5902 5901 5900 5901 5900 5899 5898 5897 5897 5897 5897 5897 5898
5878 5878 5877 5877 5876 5876 5875 5875 5874 5874 5873 5873 5872 5872 5872 5871 5871 5871 5871 5871 5871 5872 5871 5871 5871 5871 5871 5871 5870 5870 5870 5868 5868 5868 5869 5870 5871 5872 5873 5874 5875 5875 5876 5877 5878 5880 5882 5883 5883 5884 5885 5885 5887 5888 5889 5891 5891 5890 5890 5891 5892 5893 5893 5892 5891 5891 5891 5891 5891 5893 5895 5897 5899 5900 5901 5902 5901 5900 5901 5900 5899 5898 5897 5896 5896 5897 5897 5897
5876 5875 5875 5874 5874 5874 5874 5873 5873 5872 5871 5871 5870 5870 5870 5870 5870 5870 5870 5869 5870 5870 5870 5870 5870 5869 5869 5869 5869 5869 5869 5868 5867 5867 5867 5869 5869 5870 5871 5872 5873 5874 5875 5876 5877 5879 5880 5880 5880 5880 5882 5884 5886 5887 5887 5889 5889 5888 5889 5891 5892 5892 5892 5892 5891 5890 5890 5890 5890 5892 5894 5895 5897 5899 5900 5900 5900 5899 5900 5900 5899 5897 5896 5896 5896 5896 5897 5897
5873 5873 5872 5872 5872 5871 5871 5871 5871 5870 5869 5869 5868 5868 5868 5868 5869 5869 5867 5867 5868 5869 5868 5868 5868 5868 5868 5867 5867 5868 5867 5867 5866 5866 5865 5866 5867 5868 5869 5870 5872 5873 5873 5874 5875 5877 5878 5878 5877 5879 5882 5883 5884 5885 5885 5886 5886 5887 5889 5891 5891 5891 5891 5892 5891 5890 5890 5890 5890 5892 5893 5894 5896 5897 5898 5899 5899 5899 5898 5899 5898 5897 5896 5895 5895 5896 5896 5896
5871 5870 5870 5869 5869 5868 5868 5868 5868 5868 5867 5866 5866 5866 5866 5867 5867 5867 5866 5865 5866 5866 5866 5867 5867 5867 5866 5865 5866 5866 5866 5866 5865 5864 5864 5865 5866 5867 5868 5868 5870 5871 5872 5873 5873 5874 5875 5875 5876 5879 5881 5880 5882 5883 5883 5884 5885 5887 5888 5890 5891 5891 5890 5890 5890 5890 5889 5889 5890 5891 5892 5893 5895 5896 5898 5898 5899 5899 5897 5897 5898 5897 5896 5895 5895 5895 5896 5896
5868 5867 5867 5866 5866 5865 5865 5865 5865 5865 5864 5863 5863 5864 5864 5865 5865 5864 5864 5863 5864 5865 5865 5865 5865 5865 5864 5863 5864 5865 5865 5864 5863 5863 5864 5864 5864 5865 5865 5866 5867 5868 5870 5871 5871 5872 5872 5872 5874 5876 5877 5878 5880 5881 5881 5883 5884 5885 5886 5888 5889 5889 5888 5888 5889 5889 5889 5889 5890 5890 5891 5893 5895 5896 5898 5898 5899 5899 5898 5897 5897 5897 5896 5895 5895 5895 5895 5895
5865 5865 5864 5864 5863 5863 5863 5862 5863 5862 5861 5861 5861 5861 5861 5862 5862 5862 5862 5861 5862 5863 5863 5863 5863 5864 5862 5860 5862 5864 5863 5862 5862 5863 5863 5862 5863 5863 5863 5864 5864 5865 5867 5868 5869 5869 5869 5870 5872 5874 5875 5878 5878 5877 5879 5881 5881 5882 5884 5886 5887 5888 5887 5887 5888 5888 5889 5889 5890 5890 5891 5893 5895 5896 5898 5899 5899 5899 5898 5897 5897 5897 5896 5895 5895 5895 5895 5895
5863 5862 5861 5861 5861 5860 5860 5860 5860 5859 5858 5858 5858 5858 5859 5859 5859 5859 5859 5859 5860 5860 5861 5861 5861 5862 5860 5858 5860 5861 5861 5860 5861 5862 5861 5860 5861 5861 5862 5862 5862 5863 5863 5865 5866 5866 5866 5868 5870 5872 5873 5875 5875 5876 5878 5878 5879 5880 5881 5884 5886 5886 5887 5886 5887 5888 5889 5889 5889 5890 5891 5892 5894 5896 5898 5899 5899 5899 5899 5898 5897 5897 5896 5895 5895 5895 5895 5895
5860 5859 5859 5858 5858 5857 5857 5857 5857 5856 5855 5855 5856 5855 5855 5856 5856 5855 5856 5856 5857 5857 5858 5859 5859 5859 5858 5856 5857 5858 5859 5859 5860 5861 5860 5859 5859 5860 5860 5861 5861 5861 5861 5861 5862 5863 5863 5865 5868 5869 5871 5872 5873 5874 5874 5875 5877 5879 5880 5883 5885 5885 5886 5886 5886 5887 5888 5888 5888 5889 5890 5891 5893 5895 5897 5898 5899 5900 5899 5898 5897 5897 5897 5895 5895 5895 5895 5896
5857 5856 5855 5855 5854 5854 5854 5854 5854 5853 5852 5852 5852 5852 5852 5852 5852 5852 5853 5853 5854 5854 5855 5856 5856 5857 5856 5855 5854 5854 5856 5858 5857 5859 5859 5857 5857 5858 5858 5858 5858 5859 5859 5859 5859 5860 5861 5863 5865 5867 5868 5870 5871 5871 5871 5875 5878 5879 5881 5883 5884 5885 5885 5885 5885 5886 5886 5886 5887 5888 5888 5890 5892 5894 5896 5897 5898 5899 5899 5899 5898 5897 5897 5896 5895 5895 5895 5895
5854 5853 5852 5851 5850 5850 5850 5850 5850 5850 5849 5848 5849 5849 5848 5849 5849 5849 5850 5850 5850 5851 5852 5853 5854 5854 5854 5853 5851 5851 5853 5855 5854 5855 5856 5855 5855 5855 5856 5856 5857 5857 5857 5857 5858 5858 5859 5860 5861 5864 5866 5867 5869 5870 5872 5876 5878 5878 5880 5881 5882 5883 5884 5884 5884 5885 5886 5886 5886 5886 5887 5889 5891 5893 5895 5896 5897 5898 5898 5898 5898 5897 5897 5897 5896 5895 5895 5895
5849 5848 5848 5847 5846 5845 5845 5845 5845 5846 5846 5845 5845 5845 5845 5845 5845 5845 5847 5847 5847 5847 5848 5850 5851 5852 5852 5850 5849 5848 5850 5851 5852 5852 5853 5854 5853 5853 5854 5854 5855 5856 5856 5856 5857 5857 5857 5857 5858 5862 5865 5866 5867 5869 5871 5874 5875 5876 5877 5878 5879 5880 5882 5883 5883 5884 5885 5885 5885 5885 5885 5887 5889 5892 5894 5895 5896 5897 5897 5897 5897 5897 5897 5897 5896 5896 5895 5895
5844 5844 5843 5843 5841 5840 5840 5841 5841 5841 5841 5841 5841 5841 5841 5841 5841 5841 5843 5844 5844 5843 5845 5846 5847 5849 5849 5846 5845 5846 5846 5848 5849 5850 5850 5851 5851 5852 5853 5853 5853 5855 5855 5855 5855 5855 5854 5854 5857 5861 5863 5863 5865 5867 5869 5871 5871 5872 5874 5876 5877 5878 5881 5882 5881 5882 5883 5883 5883 5883 5883 5885 5887 5890 5892 5894 5895 5896 5897 5897 5896 5896 5896 5896 5896 5896 5896 5896
5839 5838 5839 5838 5837 5835 5835 5835 5836 5836 5836 5837 5837 5836 5836 5836 5836 5837 5839 5842 5841 5839 5841 5842 5843 5846 5846 5842 5841 5843 5844 5847 5847 5847 5847 5848 5849 5850 5851 5851 5852 5853 5853 5852 5852 5852 5853 5855 5857 5858 5859 5860 5862 5864 5866 5868 5868 5869 5871 5873 5874 5877 5880 5880 5880 5882 5881 5881 5883 5882 5882 5883 5885 5888 5890 5892 5894 5895 5896 5896 5896 5896 5896 5896 5896 5896 5896 5896
5833 5833 5833 5833 5832 5831 5829 5830 5830 5831 5831 5832 5832 5832 5831 5831 5832 5832 5834 5837 5839 5836 5836 5838 5839 5842 5843 5839 5837 5839 5842 5845 5845 5844 5844 5845 5847 5847 5847 5848 5850 5850 5850 5850 5850 5851 5853 5855 5856 5856 5856 5857 5858 5860 5862 5864 5865 5866 5868 5870 5873 5876 5878 5879 5881 5881 5880 5880 5882 5881 5880 5881 5882 5884 5886 5889 5892 5893 5894 5895 5895 5895 5895 5895 5895 5896 5896 5896
5827 5827 5827 5827 5827 5826 5824 5824 5825 5825 5826 5826 5827 5827 5827 5826 5827 5828 5828 5831 5836 5836 5832 5832 5835 5838 5839 5835 5833 5836 5840 5842 5842 5841 5841 5843 5844 5843 5844 5846 5847 5847 5847 5848 5849 5849 5852 5854 5853 5852 5852 5854 5855 5857 5859 5860 5862 5864 5865 5868 5872 5875 5876 5878 5880 5879 5878 5879 5879 5879 5877 5876 5878 5879 5883 5887 5890 5891 5892 5893 5894 5894 5895 5894 5894 5895 5896 5896
5821 5821 5821 5821 5821 5821 5820 5819 5819 5819 5820 5820 5821 5822 5821 5822 5821 5823 5824 5824 5829 5834 5830 5828 5830 5832 5833 5831 5832 5834 5835 5838 5840 5838 5838 5840 5841 5840 5841 5842 5842 5844 5846 5846 5846 5847 5850 5850 5849 5849 5849 5851 5852 5854 5856 5858 5860 5861 5863 5867 5871 5874 5875 5877 5878 5876 5876 5876 5877 5876 5874 5873 5875 5876 5880 5884 5887 5888 5890 5891 5892 5893 5894 5893 5894 5894 5895 5896
5814 5814 5814 5814 5814 5815 5814 5813 5813 5814 5814 5814 5816 5816 5816 5816 5816 5817 5819 5818 5821 5829 5828 5825 5825 5826 5828 5829 5830 5830 5829 5835 5837 5833 5834 5837 5837 5837 5837 5838 5839 5841 5843 5842 5842 5845 5847 5847 5846 5847 5847 5848 5849 5850 5853 5855 5857 5859 5862 5867 5869 5871 5872 5874 5875 5874 5873 5875 5875 5874 5872 5872 5872 5873 5877 5881 5883 5886 5887 5889 5891 5892 5893 5893 5894 5894 5894 5896
5807 5806 5807 5807 5807 5809 5808 5807 5808 5808 5808 5808 5809 5810 5810 5811 5810 5811 5813 5812 5814 5821 5823 5821 5820 5821 5823 5824 5826 5825 5826 5832 5831 5828 5833 5834 5833 5834 5834 5835 5837 5838 5839 5838 5840 5843 5844 5843 5844 5845 5845 5845 5847 5849 5852 5853 5854 5858 5863 5865 5866 5868 5870 5871 5872 5870 5871 5873 5872 5870 5870 5869 5867 5870 5875 5878 5880 5882 5884 5886 5889 5891 5892 5893 5893 5893 5894 5894
5798 5798 5798 5799 5799 5801 5802 5802 5802 5801 5802 5803 5803 5804 5805 5804 5804 5806 5807 5806 5807 5813 5817 5817 5815 5816 5818 5819 5821 5821 5823 5827 5825 5825 5829 5828 5828 5830 5830 5833 5834 5835 5835 5834 5838 5841 5840 5840 5842 5843 5842 5843 5846 5849 5850 5850 5851 5858 5862 5861 5863 5866 5867 5869 5869 5868 5869 5869 5866 5866 5867 5865 5864 5868 5872 5874 5875 5877 5881 5885 5887 5889 5890 5891 5892 5893 5893 5893
5790 5789 5789 5791 5791 5792 5794 5795 5796 5796 5795 5795 5796 5796 5798 5798 5799 5800 5800 5800 5801 5805 5809 5811 5811 5810 5812 5814 5816 5817 5818 5821 5820 5820 5822 5822 5825 5827 5828 5831 5830 5830 5831 5831 5835 5838 5836 5838 5839 5838 5838 5841 5845 5847 5847 5846 5850 5857 5859 5858 5861 5863 5863 5866 5865 5866 5866 5861 5860 5865 5865 5863 5863 5866 5868 5869 5870 5874 5879 5883 5884 5886 5888 5890 5891 5892 5892 5892
5781 5780 5779 5782 5782 5783 5784 5786 5789 5792 5789 5787 5788 5789 5790 5791 5792 5793 5792 5795 5797 5798 5801 5804 5805 5803 5804 5807 5810 5811 5812 5814 5815 5814 5815 5818 5821 5822 5824 5826 5825 5826 5827 5827 5831 5833 5833 5834 5834 5834 5837 5840 5841 5843 5843 5844 5849 5854 5853 5853 5857 5858 5860 5862 5861 5864 5861 5853 5855 5863 5864 5861 5860 5863 5865 5865 5869 5874 5877 5880 5881 5883 5886 5887 5889 5890 5891 5891
5773 5771 5770 5772 5773 5774 5776 5776 5780 5784 5783 5780 5780 5781 5782 5783 5785 5785 5786 5790 5792 5792 5794 5796 5797 5797 5798 5800 5803 5805 5807 5807 5808 5808 5809 5813 5815 5816 5819 5821 5821 5822 5822 5824 5828 5831 5830 5830 5832 5833 5836 5837 5837 5838 5839 5841 5846 5849 5847 5849 5851 5852 5855 5856 5856 5858 5851 5846 5853 5862 5863 5859 5855 5859 5864 5864 5868 5873 5874 5877 5879 5880 5883 5885 5887 5888 5889 5890
5764 5763 5761 5762 5762 5764 5767 5769 5769 5771 5773 5773 5772 5772 5774 5774 5775 5778 5781 5785 5785 5785 5786 5786 5788 5792 5793 5794 5796 5799 5801 5801 5802 5802 5804 5808 5810 5813 5816 5817 5819 5819 5820 5824 5827 5828 5828 5828 5831 5832 5833 5834 5834 5835 5836 5837 5840 5843 5843 5844 5845 5846 5848 5848 5848 5848 5843 5844 5852 5860 5861 5855 5850 5857 5864 5864 5867 5870 5872 5876 5877 5878 5880 5882 5884 5886 5887 5888
5754 5754 5752 5752 5754 5755 5757 5759 5759 5759 5761 5764 5763 5764 5764 5764 5767 5772 5776 5777 5777 5779 5779 5778 5781 5785 5787 5789 5790 5792 5795 5796 5798 5797 5798 5802 5804 5807 5810 5812 5813 5814 5816 5820 5822 5823 5824 5825 5826 5827 5829 5830 5830 5833 5834 5835 5838 5839 5839 5839 5839 5841 5840 5839 5842 5843 5842 5845 5851 5858 5857 5849 5847 5855 5861 5863 5866 5868 5871 5873 5875 5876 5877 5879 5882 5883 5885 5886
5744 5743 5742 5743 5746 5746 5746 5748 5750 5750 5750 5751 5754 5755 5754 5755 5761 5765 5767 5768 5769 5771 5772 5772 5774 5777 5780 5784 5784 5785 5788 5790 5792 5793 5793 5795 5798 5801 5804 5806 5808 5810 5813 5814 5815 5818 5820 5821 5823 5825 5827 5828 5829 5831 5833 5835 5836 5836 5838 5837 5836 5837 5835 5836 5841 5842 5843 5845 5849 5854 5849 5842 5845 5853 5859 5863 5865 5866 5869 5870 5872 5873 5875 5877 5879 5880 5882 5884
5732 5730 5730 5733 5736 5735 5735 5736 5739 5740 5740 5739 5742 5743 5745 5749 5753 5754 5755 5759 5762 5764 5765 5766 5767 5769 5772 5776 5777 5778 5780 5783 5786 5788 5788 5789 5792 5796 5800 5803 5805 5806 5808 5810 5812 5815 5816 5818 5823 5823 5824 5825 5825 5828 5831 5831 5831 5833 5835 5833 5831 5834 5836 5838 5840 5842 5844 5844 5845 5847 5842 5839 5846 5852 5856 5861 5862 5864 5867 5868 5870 5871 5872 5874 5876 5878 5880 5881
5720 5717 5719 5721 5723 5725 5725 5725 5727 5728 5729 5728 5728 5732 5738 5741 5742 5743 5745 5749 5751 5755 5757 5758 5759 5760 5763 5766 5768 5770 5773 5776 5778 5778 5781 5783 5785 5790 5794 5797 5800 5801 5804 5806 5808 5811 5812 5816 5821 5819 5819 5821 5822 5824 5826 5825 5827 5830 5829 5827 5829 5836 5839 5837 5838 5841 5842 5840 5839 5841 5839 5840 5845 5848 5852 5857 5859 5862 5864 5866 5867 5868 5870 5872 5873 5875 5878 5879
5707 5704 5705 5708 5710 5713 5713 5713 5714 5715 5715 5716 5717 5723 5728 5729 5730 5733 5735 5736 5740 5744 5747 5748 5750 5752 5752 5755 5758 5762 5766 5768 5769 5771 5775 5776 5777 5782 5786 5790 5794 5795 5798 5801 5803 5805 5807 5811 5815 5814 5814 5819 5820 5820 5820 5820 5823 5824 5824 5827 5832 5835 5834 5832 5833 5836 5836 5833 5834 5837 5837 5838 5841 5843 5848 5853 5855 5858 5861 5864 5865 5867 5868 5869 5871 5873 5875 5877
5692 5690 5690 5693 5697 5700 5699 5699 5700 5700 5701 5703 5707 5712 5715 5716 5720 5722 5722 5725 5729 5732 5735 5738 5741 5742 5743 5745 5749 5753 5757 5758 5761 5765 5768 5769 5771 5775 5780 5783 5787 5789 5792 5795 5796 5799 5801 5803 5808 5809 5810 5814 5815 5812 5812 5814 5817 5820 5822 5825 5827 5826 5827 5827 5826 5827 5829 5829 5830 5833 5834 5834 5835 5839 5845 5849 5852 5855 5859 5861 5863 5865 5866 5867 5868 5871 5873 5874
5676 5674 5672 5677 5684 5685 5684 5683 5684 5686 5687 5690 5694 5697 5700 5703 5707 5709 5710 5713 5717 5719 5722 5726 5730 5732 5733 5736 5739 5743 5747 5750 5753 5757 5759 5761 5764 5768 5772 5775 5778 5782 5785 5787 5788 5792 5795 5797 5801 5805 5805 5808 5807 5803 5804 5809 5814 5816 5817 5818 5819 5820 5822 5824 5822 5823 5826 5827 5827 5830 5830 5829 5832 5837 5843 5846 5849 5852 5856 5858 5861 5863 5865 5865 5867 5869 5870 5872
5659 5657 5653 5660 5669 5669 5667 5666 5667 5670 5673 5677 5680 5682 5685 5688 5692 5696 5698 5700 5703 5706 5709 5713 5717 5721 5723 5726 5729 5732 5737 5741 5744 5748 5751 5754 5756 5759 5763 5765 5768 5772 5776 5779 5782 5786 5787 5788 5792 5799 5800 5799 5797 5796 5801 5809 5810 5810 5810 5811 5814 5816 5817 5820 5820 5820 5822 5824 5825 5826 5825 5826 5831 5836 5840 5844 5847 5849 5853 5855 5858 5861 5863 5864 5865 5867 5868 5870
5642 5640 5635 5642 5650 5650 5649 5648 5649 5655 5658 5661 5664 5665 5669 5673 5677 5681 5683 5685 5689 5692 5696 5699 5703 5709 5713 5715 5718 5721 5726 5731 5735 5739 5742 5747 5749 5750 5753 5758 5760 5764 5768 5770 5772 5775 5777 5779 5784 5791 5792 5790 5792 5797 5802 5806 5806 5806 5807 5809 5812 5814 5815 5816 5815 5815 5818 5819 5821 5823 5821 5824 5831 5834 5838 5842 5844 5847 5850 5852 5855 5858 5860 5862 5863 5865 5866 5867
5626 5624 5619 5624 5630 5631 5631 5630 5632 5640 5643 5644 5647 5650 5654 5658 5662 5666 5668 5670 5674 5678 5683 5687 5691 5696 5699 5703 5708 5711 5714 5719 5725 5729 5732 5738 5741 5740 5745 5751 5753 5756 5760 5760 5762 5767 5771 5773 5776 5782 5786 5786 5791 5796 5797 5799 5801 5801 5801 5804 5809 5810 5811 5812 5812 5814 5816 5815 5818 5820 5818 5821 5829 5832 5835 5839 5841 5844 5847 5849 5851 5854 5857 5859 5861 5862 5863 5864
5612 5610 5605 5606 5609 5612 5614 5613 5616 5624 5625 5626 5631 5635 5639 5643 5646 5650 5652 5655 5660 5665 5670 5673 5676 5681 5685 5690 5695 5699 5703 5708 5713 5717 5722 5727 5730 5732 5738 5744 5744 5747 5750 5752 5756 5760 5761 5764 5766 5772 5779 5782 5786 5789 5789 5790 5792 5791 5792 5797 5802 5804 5808 5811 5812 5814 5814 5813 5815 5817 5814 5818 5827 5830 5832 5835 5838 5840 5843 5845 5848 5851 5853 5856 5858 5859 5860 5861
5601 5600 5596 5592 5592 5595 5598 5599 5602 5606 5607 5610 5615 5619 5623 5627 5630 5634 5637 5641 5646 5650 5654 5657 5661 5666 5671 5676 5681 5687 5692 5696 5701 5706 5711 5716 5720 5724 5730 5734 5735 5738 5741 5744 5749 5750 5752 5756 5758 5762 5769 5772 5774 5775 5776 5778 5781 5783 5787 5793 5798 5801 5804 5806 5807 5808 5808 5808 5811 5812 5809 5814 5824 5828 5829 5832 5834 5837 5839 5841 5844 5847 5850 5853 5855 5856 5857 5858
5593 5592 5589 5583 5580 5582 5584 5585 5589 5591 5592 5595 5599 5603 5607 5611 5614 5618 5622 5627 5630 5634 5639 5644 5649 5654 5656 5660 5666 5674 5681 5685 5690 5695 5699 5704 5710 5715 5720 5724 5727 5729 5732 5736 5740 5743 5746 5749 5750 5753 5758 5761 5763 5765 5768 5773 5777 5781 5786 5790 5793 5796 5798 5800 5802 5801 5800 5803 5806 5806 5806 5812 5820 5824 5826 5828 5831 5833 5835 5837 5840 5843 5846 5849 5851 5852 5853 5855
5586 5585 5585 5579 5574 5573 5573 5574 5577 5580 5580 5582 5586 5589 5592 5596 5599 5603 5608 5612 5614 5619 5626 5632 5636 5638 5640 5645 5653 5662 5670 5675 5678 5682 5687 5692 5699 5705 5710 5715 5718 5721 5725 5728 5731 5735 5739 5741 5745 5748 5751 5756 5762 5766 5771 5775 5777 5779 5783 5786 5788 5791 5794 5796 5796 5795 5797 5800 5802 5803 5806 5810 5816 5821 5823 5825 5827 5829 5831 5833 5836 5839 5842 5844 5846 5848 5849 5850
5579 5578 5578 5576 5571 5568 5566 5566 5568 5570 5570 5572 5574 5576 5578 5582 5586 5589 5594 5597 5601 5606 5612 5616 5619 5622 5628 5635 5642 5648 5656 5663 5667 5672 5676 5682 5689 5694 5699 5704 5709 5712 5717 5720 5723 5727 5730 5734 5739 5742 5745 5750 5756 5762 5768 5771 5772 5775 5779 5782 5784 5787 5790 5791 5789 5791 5796 5797 5797 5803 5807 5807 5811 5817 5820 5821 5824 5826 5828 5830 5833 5835 5837 5840 5842 5845 5846 5846
5575 5573 5571 5571 5569 5565 5562 5560 5561 5563 5564 5565 5566 5566 5568 5571 5574 5578 5582 5586 5590 5595 5598 5600 5604 5609 5617 5623 5628 5634 5643 5651 5656 5661 5665 5672 5679 5684 5689 5695 5699 5703 5708 5711 5715 5719 5723 5728 5732 5733 5736 5743 5748 5753 5759 5763 5766 5770 5773 5777 5780 5783 5785 5786 5786 5790 5794 5794 5796 5802 5805 5804 5807 5813 5816 5818 5821 5823 5825 5827 5829 5832 5834 5836 5839 5841 5842 5844
5570 5569 5567 5566 5565 5562 5561 5559 5558 5558 5558 5559 5561 5560 5561 5563 5565 5568 5572 5577 5582 5586 5587 5590 5593 5598 5604 5610 5614 5621 5631 5639 5644 5649 5656 5663 5670 5676 5682 5686 5690 5695 5700 5703 5707 5711 5716 5722 5724 5724 5728 5736 5743 5748 5752 5754 5759 5763 5766 5771 5774 5777 5780 5783 5785 5788 5790 5791 5795 5799 5800 5801 5804 5808 5812 5814 5817 5820 5822 5823 5825 5828 5830 5832 5835 5837 5839 5841
5566 5565 5564 5563 5561 5559 5558 5558 5556 5556 5555 5555 5557 5556 5556 5558 5560 5562 5565 5569 5575 5578 5579 5581 5585 5587 5592 5597 5601 5609 5619 5626 5632 5639 5647 5654 5661 5668 5673 5677 5682 5687 5691 5695 5698 5702 5709 5715 5716 5717 5722 5729 5737 5743 5745 5748 5751 5755 5759 5764 5768 5772 5775 5777 5781 5783 5785 5787 5791 5793 5794 5797 5801 5804 5808 5810 5813 5815 5817 5819 5821 5823 5826 5829 5831 5833 5835 5838
5562 5561 5561 5561 5559 5556 5555 5555 5554 5554 5553 5552 5553 5553 5553 5554 5556 5558 5561 5563 5567 5571 5570 5571 5575 5578 5581 5586 5591 5598 5606 5612 5620 5630 5639 5644 5652 5659 5663 5669 5675 5679 5684 5688 5690 5694 5701 5706 5709 5711 5714 5722 5732 5736 5739 5743 5746 5747 5751 5756 5760 5764 5767 5771 5775 5777 5780 5784 5787 5787 5788 5793 5798 5801 5804 5806 5809 5811 5813 5815 5817 5818 5820 5823 5826 5829 5832 5834
5559 5558 5558 5558 5557 5554 5553 5553 5552 5551 5551 5551 5551 5551 5551 5551 5552 5555 5557 5558 5561 5564 5564 5564 5567 5569 5574 5579 5583 5587 5592 5599 5609 5621 5629 5635 5642 5649 5655 5661 5666 5671 5677 5680 5683 5688 5693 5697 5702 5704 5706 5716 5725 5728 5732 5737 5736 5736 5742 5749 5754 5758 5762 5767 5770 5772 5776 5780 5781 5782 5786 5792 5797 5798 5799 5802 5805 5807 5809 5811 5812 5814 5816 5819 5821 5825 5829 5831